Meacham, OR

3:30 AM PST on February 20, 2017 (GMT -0800)
Meacham

Weather History for KMEH - March, 2014

Change the Weather History Date:

Tuesday, March 4, 2014

  Actual Average Record
Temperature  
Mean Temperature 40 °F -  
Max Temperature 50 °F 38 °F 55 °F (2012)
Min Temperature 30 °F 19 °F 8 °F (2015)
Degree Days  
Heating Degree Days 25    
Moisture  
Dew Point 33 °F    
Average Humidity 81    
Maximum Humidity 96    
Minimum Humidity 48    
Precipitation  
Precipitation 0.03 in - - ()
Sea Level Pressure  
Sea Level Pressure 30.01 in    
Wind  
Wind Speed 1 mph (North)    
Max Wind Speed 5 mph    
Max Gust Speed -    
Visibility 9 miles    
Events Rain    
Averages and records for this station are not official NWS values.
T = Trace of Precipitation, MM = Missing Value Source: NWS Daily Summary

Daily Weather History Graph

Daily Weather History Graph

Search for Another Location

Airport or City:

Trip Planner

Search our weather history database for the weather conditions in past years. The results will help you decide how hot, cold, wet, or windy it might be!

Date:

Astronomy

Mar. 04, 2014 Rise Set
Actual Time 6:26 AM PST 5:44 PM PST
Civil Twilight 5:56 AM PST 6:14 PM PST
Nautical Twilight 5:22 AM PST 6:48 PM PST
Astronomical Twilight 4:48 AM PST 7:23 PM PST
Moon 8:03 AM PST (3/4) 10:11 PM PST (3/4)
Length of Visible Light 12h 17m
Length of Day
11h 18m
Waxing Crescent, 15% of the Moon is Illuminated
Mar 4
Waxing Crescent
Mar 8
First Quarter
Mar 16
Full
Mar 23
Last Quarter
Mar 30
New

Hourly Weather History & Observations

Time (PST) Temp. Windchill Dew Point Humidity Pressure Visibility Wind Dir Wind Speed Gust Speed Precip Events Conditions
12:56 AM 37.9 °F - 36.0 °F 93% 29.96 in 10.0 mi Calm Calm - N/A   Overcast
1:56 AM 36.0 °F - 34.0 °F 93% 29.97 in 10.0 mi Calm Calm - N/A   Overcast
2:56 AM 35.1 °F - 33.1 °F 92% 29.99 in 10.0 mi Calm Calm - N/A   Overcast
3:56 AM 35.1 °F - 33.1 °F 92% 30.00 in 10.0 mi Calm Calm - N/A   Overcast
4:56 AM 33.1 °F - 30.9 °F 92% 30.00 in 10.0 mi Calm Calm - N/A   Scattered Clouds
5:56 AM 32.0 °F - 30.0 °F 92% 30.02 in 4.0 mi Calm Calm - N/A   Scattered Clouds
6:28 AM 30.9 °F - 30.0 °F 96% 29.96 in 8.0 mi Calm Calm - N/A   Scattered Clouds
6:56 AM 30.9 °F - 30.0 °F 96% 30.01 in 5.0 mi Calm Calm - N/A   Clear
7:56 AM 33.1 °F - 32.0 °F 96% 30.02 in 10.0 mi Calm Calm - N/A   Clear
8:56 AM 39.9 °F - 37.0 °F 89% 30.01 in 10.0 mi Calm Calm - N/A   Clear
9:56 AM 45.0 °F 42.6 °F 33.1 °F 63% 30.03 in 10.0 mi Variable 4.6 mph - N/A   Mostly Cloudy
10:56 AM 45.0 °F 42.6 °F 32.0 °F 60% 30.04 in 10.0 mi Variable 4.6 mph - 0.00 in Rain Light Rain
11:20 AM 41.0 °F 39.0 °F 35.1 °F 79% 30.03 in 2.5 mi Variable 3.5 mph - 0.01 in Rain Rain
11:34 AM 41.0 °F - 37.0 °F 86% 30.02 in 8.0 mi Calm Calm - 0.03 in Rain Light Rain
11:41 AM 41.0 °F - 37.0 °F 86% 30.02 in 9.0 mi Calm Calm - 0.03 in Rain Light Rain
11:56 AM 44.1 °F - 37.9 °F 79% 30.04 in 10.0 mi Calm Calm - 0.03 in   Overcast
12:56 PM 48.0 °F - 33.1 °F 56% 30.00 in 10.0 mi Variable 4.6 mph - N/A   Overcast
1:56 PM 48.9 °F - 30.0 °F 48% 29.99 in 10.0 mi Variable 4.6 mph - N/A   Overcast
2:56 PM 50.0 °F - 30.9 °F 48% 29.99 in 10.0 mi North - - N/A   Mostly Cloudy
3:56 PM 48.9 °F - 32.0 °F 52% 29.99 in 10.0 mi Calm Calm - N/A   Partly Cloudy
4:56 PM 46.9 °F - 33.1 °F 59% 30.01 in 10.0 mi Calm Calm - N/A   Mostly Cloudy
5:56 PM 39.9 °F - 34.0 °F 79% 30.02 in 10.0 mi Calm Calm - N/A   Clear
6:56 PM 37.0 °F - 33.1 °F 86% 30.03 in 10.0 mi Calm Calm - N/A   Clear
7:56 PM 35.1 °F - 32.0 °F 89% 30.04 in 10.0 mi Calm Calm - N/A   Clear
8:56 PM 34.0 °F - 30.9 °F 89% 30.03 in 10.0 mi Calm Calm - N/A   Clear
9:56 PM 33.1 °F - 30.9 °F 92% 30.01 in 10.0 mi Calm Calm - N/A   Clear
10:56 PM 33.1 °F - 30.9 °F 92% 30.00 in 10.0 mi Calm Calm - N/A   Scattered Clouds
11:56 PM 33.1 °F - 30.9 °F 92% 29.98 in 10.0 mi Calm Calm - N/A   Scattered Clouds